Regional Weather Roundup
Issued by NWS

Home | Current Version | Previous Version | Graphics & Text | Print | Product List | Glossary On
Versions: 1 2 3 4 5 6 7 8 9 10 11 12 13 14 15 16 17 18 19 20 21 22 23 24 25 26 27 28 29 30 31 32 33 34 35 36 37 38 39 40 41 42 43 44 45 46 47 48 49 50
000
ASUS45 KCYS 040210
RWRWY

WYOMING REGIONAL WEATHER ROUNDUP
NATIONAL WEATHER SERVICE CHEYENNE WY
700 PM MST TUE MAR 03 2015

NOTE:  "FAIR" INDICATES FEW OR NO CLOUDS BELOW 12,000 FEET
WITH NO SIGNIFICANT WEATHER AND/OR OBSTRUCTIONS TO VISIBILITY.

WYZ001-040300-
YELLOWSTONE NATIONAL PARK

CITY           SKY/WX    TMP DP  RH WIND       PRES   REMARKS
LK YELLOWSTONE   N/A      7  -6  55 VRB5      29.81R WCI  -2
W YELLOWSTONE  NOT AVBL

$$
WYZ002>013-054>058-071-098>099-040300-
NORTHERN WYOMING

CITY           SKY/WX    TMP DP  RH WIND       PRES   REMARKS
JACKSON        CLEAR     12   0  57 SW13      29.83R WCI  -3
CODY           FAIR       7   0  72 S3        29.94R
GREYBULL       FAIR      14  -1  51 NW10      30.00R WCI   1
WORLAND        FAIR       8   1  73 VRB3      29.98R
SHERIDAN       FAIR      -2 -10  69 SW7       30.00R WCI -15
BUFFALO        FAIR       1  -5  75 W8        29.93R WCI -13
GILLETTE       FAIR      -1  -6  79 W7        29.96R WCI -14
HULETT         FAIR       7  -2  66 SW7       29.96R WCI  -5
NEWCASTLE      FAIR      10   1  67 NW10      29.98R WCI  -3

$$
WYZ014>020-022>026-101>103-040300-
CENTRAL WYOMING

CITY           SKY/WX    TMP DP  RH WIND       PRES   REMARKS
BIG PINEY      FAIR      17   3  54 N15       29.80R WCI   2
PINEDALE       MOCLDY     9   0  66 NW7       29.79R WCI  -3
DUBOIS         FLURRIES   1  -2  85 S3        29.76R
LANDER         CLOUDY     8   2  76 SE3       29.88R
RIVERTON       CLOUDY     7   0  73 SE7       29.90R WCI  -5
CASPER         MOCLDY    -2  -5  87 CALM      29.91R
DOUGLAS        FAIR       3   0  87 N5        29.95R WCI  -6

$$
WYZ021-027>030-104>119-040300-
SOUTHERN WYOMING

CITY           SKY/WX    TMP DP  RH WIND       PRES   REMARKS
EVANSTON       FAIR      14   9  80 W7        29.85R WCI   4
FORT BRIDGER   MOCLDY    20  18  89 W15       29.86R WCI   7
ROCK SPRINGS   FAIR       7   3  84 E7        29.79R WCI  -5
DIXON          CLOUDY    16  12  84 CALM      29.81R
RAWLINS        LGT SNOW   8   3  80 E6        29.80R WCI  -2
SARATOGA       LGT SNOW   9   5  85 CALM      29.80R
LARAMIE        FLURRIES   7   4  87 NW12      29.74R WCI  -8
CHEYENNE       LGT SNOW   9   3  77 NE5       29.82R WCI   1
TORRINGTON     CLOUDY    14   8  77 N6        29.97R WCI   5
PINE BLUFFS    LGT SNOW  12  10  92 N10       29.91R WCI  -1

$$


USA.gov is the U.S. government's official web portal to all federal, state and local government web resources and services.